Wind_Speed
80 82 79 79 81 77 77 77 64 64 50 54 50 53 59 59 66 64 63 55 52 56 55 54 50 54 57 66 68 58 44 46 46 49 49 42 29 16 8 16 24 39 48 52 63 74 79
87 83 83 80 81 79 81 75 70 61 54 48 49 50 53 57 61 62 54 46 48 48 43 42 41 45 51 60 62 54 43 45 50 49 45 34 17 8 5 7 18 32 38 50 54 59 65
85 84 83 88 87 84 84 83 71 56 50 50 45 50 51 49 52 53 50 43 45 41 33 32 34 38 45 53 59 52 39 42 44 41 34 29 16 12 9 5 7 21 42 48 53 56 61
87 89 89 89 91 91 85 83 70 50 48 44 47 48 50 48 51 47 45 41 40 35 28 28 27 32 40 47 55 52 38 41 41 34 36 33 21 17 13 10 5 10 33 39 50 55 58
88 89 88 91 97 94 91 77 61 54 49 44 44 52 52 48 48 47 46 40 36 29 23 23 22 27 34 42 50 52 40 40 44 37 38 41 33 21 16 9 4 7 19 36 44 56 58
91 92 93 98 96 99 93 76 66 55 46 41 43 57 54 53 48 45 42 40 34 25 21 17 20 24 29 36 46 46 43 42 48 46 49 46 39 30 19 9 5 4 14 23 41 46 51
97 96 96 97 96 96 91 71 65 56 50 42 44 61 59 54 49 44 45 40 33 26 19 14 15 20 25 33 41 42 42 39 41 44 47 46 43 37 29 16 7 1 10 18 23 44 42
96 99 102 103 97 96 80 70 66 54 52 45 50 60 60 59 49 46 46 42 31 27 20 13 12 17 22 30 35 37 37 39 42 43 44 41 40 37 32 24 13 8 8 12 32 36 41
108 108 107 105 101 91 78 74 63 53 49 41 53 59 59 61 49 48 46 38 32 27 21 15 10 14 19 27 28 32 33 35 39 40 41 43 41 38 33 28 19 11 15 18 22 26 30
111 118 117 113 104 91 79 69 59 45 39 35 43 54 57 59 49 51 44 39 36 29 23 16 11 12 17 25 25 28 31 32 34 37 39 38 44 42 35 28 23 17 16 20 25 28 30
116 128 118 116 108 96 81 65 50 38 35 30 42 52 52 62 53 53 48 42 38 33 26 18 12 10 15 19 20 24 28 30 32 36 39 38 39 39 36 32 24 23 17 19 25 31 35
118 130 122 114 107 90 79 61 46 34 33 28 39 52 53 58 55 50 48 43 41 37 29 19 13 10 13 14 16 20 25 29 30 33 36 37 39 40 41 36 30 26 22 22 25 31 36
126 131 126 113 98 84 69 57 43 32 30 26 39 48 54 59 57 51 50 46 45 39 30 22 15 10 11 10 12 16 21 26 31 35 38 39 40 38 40 41 34 27 24 23 26 31 37
122 126 126 108 93 79 61 52 40 31 28 29 42 46 55 60 58 53 51 49 45 38 31 24 16 12 10 7 8 13 19 24 30 35 39 43 43 43 39 38 35 30 24 22 24 30 39
124 128 113 99 86 72 55 42 35 31 26 33 43 50 58 58 57 53 53 52 47 36 31 23 17 14 9 6 5 9 15 22 28 33 38 42 45 47 46 40 35 34 26 21 21 31 39
132 131 105 90 81 67 48 37 34 26 24 33 43 54 53 60 56 55 55 53 47 36 31 24 18 15 9 5 3 6 14 21 27 32 38 43 47 47 47 43 37 34 27 19 20 26 35
144 123 97 83 67 57 44 31 22 14 21 35 44 53 54 61 60 56 57 53 44 34 30 24 20 15 9 5 3 6 13 20 26 32 38 42 47 50 48 50 42 37 31 21 16 19 29
140 120 96 80 62 47 36 20 11 14 22 32 42 54 59 63 64 61 59 51 41 35 30 25 21 15 9 5 3 9 13 19 26 34 38 43 49 51 51 48 48 46 35 25 13 13 23
139 123 95 79 57 46 28 11 9 15 23 31 41 51 63 64 65 63 58 50 39 36 32 26 21 14 8 4 2 7 13 18 24 33 39 44 50 55 55 56 57 48 40 32 18 11 17
122 117 92 77 53 40 21 6 5 11 21 30 48 58 66 67 66 61 56 45 39 34 31 27 20 14 8 5 2 5 12 18 23 30 38 45 51 56 57 56 54 49 37 30 25 13 14
126 110 84 70 49 32 16 0 6 16 22 37 54 62 67 68 63 58 51 45 39 34 30 26 20 13 8 6 2 5 11 17 23 29 37 44 50 55 59 59 56 49 41 32 28 20 13
130 110 83 62 44 22 10 13 20 27 30 54 63 63 64 65 59 56 49 43 38 34 31 25 18 13 9 6 2 5 11 17 23 29 36 42 47 53 59 62 59 55 47 43 35 27 19
130 111 84 51 34 14 7 20 35 39 50 53 60 64 66 63 59 54 49 41 36 34 30 24 17 13 9 6 3 5 10 16 22 27 33 40 46 53 57 62 60 55 57 43 40 28 22
121 103 81 51 21 10 11 25 38 57 58 57 63 61 62 59 55 50 44 37 35 33 28 23 17 14 9 6 4 3 8 14 20 27 32 37 44 50 54 61 67 66 59 55 44 38 33
119 99 76 48 16 12 17 23 39 50 61 61 63 62 60 57 52 47 43 38 37 33 28 22 18 13 9 6 5 2 7 13 21 27 33 37 41 46 52 59 62 68 69 64 56 51 41
113 97 73 45 16 11 15 19 36 52 62 65 64 60 58 54 50 45 39 34 36 33 27 22 18 13 8 7 5 4 7 12 19 27 33 37 42 46 51 57 65 69 70 70 62 59 54
115 97 67 42 20 8 23 18 29 47 55 60 60 56 53 49 45 40 37 31 31 31 26 20 17 13 9 8 8 5 7 12 17 25 32 36 41 46 51 57 62 67 71 72 71 72 60
118 99 65 38 18 10 19 26 37 38 47 57 57 54 51 47 41 37 34 30 32 28 23 20 16 13 11 7 8 7 7 13 18 24 29 37 41 46 52 54 62 69 72 75 75 74 69
101 89 58 40 18 14 23 36 42 45 54 52 55 52 49 44 39 35 34 32 29 25 22 19 17 15 11 9 9 7 9 11 17 23 30 34 41 46 49 55 58 67 73 75 77 76 75
Wind_Direction
341 340 336 334 332 330 330 329 328 318 300 275 263 266 264 258 263 267 273 280 276 270 269 275 279 283 288 292 299 314 330 329 335 335 329 326 311 303 284 250 227 216 211 214 214 214 214
338 336 334 331 331 331 328 328 325 315 309 273 270 259 259 252 257 263 268 270 267 269 268 272 277 283 291 296 303 316 337 336 344 338 335 333 327 3 5 282 234 215 203 203 207 212 210
333 329 329 330 328 328 329 327 321 314 305 296 265 253 252 248 251 254 260 259 263 266 264 266 275 288 296 300 306 319 340 339 347 340 346 356 359 30 42 13 268 223 194 203 205 209 211
334 336 332 328 330 330 329 325 319 309 306 296 266 243 241 244 246 245 253 248 257 258 257 261 278 288 299 303 309 319 345 347 348 354 5 15 21 38 53 43 17 233 208 210 206 210 213
335 331 331 329 331 329 327 324 315 309 303 297 271 240 239 234 236 238 239 245 250 248 243 258 275 291 301 306 314 325 345 357 350 360 21 21 24 34 39 47 62 278 227 215 212 210 214
334 335 331 328 328 328 328 324 316 306 297 283 268 239 235 234 233 229 231 239 241 232 231 246 268 290 300 310 318 326 343 357 359 5 11 15 28 30 29 32 44 300 252 235 223 221 221
336 334 329 328 328 326 327 321 314 304 289 274 255 241 236 238 228 219 223 230 229 215 216 232 266 292 304 313 322 326 338 355 4 11 10 17 18 21 25 20 12 16 264 253 254 228 235
340 337 334 331 328 332 326 321 313 303 289 280 250 243 236 232 218 219 218 221 203 204 206 219 261 289 308 315 320 327 336 351 2 14 9 18 19 17 18 16 353 281 235 235 246 243 242
346 340 339 336 335 332 325 319 313 303 288 273 251 244 237 233 218 213 224 210 188 194 194 206 244 284 311 313 318 327 336 349 358 13 11 10 17 18 11 10 350 310 262 238 234 248 254
347 342 340 339 337 331 325 317 313 302 283 257 249 248 235 229 224 214 212 204 177 186 182 199 228 274 306 309 321 330 336 346 355 5 18 14 12 13 13 0 346 318 280 251 251 242 244
345 343 341 337 337 331 326 318 312 299 279 251 235 241 234 226 215 210 204 195 174 183 175 195 214 261 295 303 321 328 334 342 356 1 10 20 12 8 7 354 338 325 291 261 243 238 238
340 343 340 339 336 331 324 315 309 296 277 252 226 229 226 221 221 211 203 188 174 182 177 184 206 245 280 297 319 327 335 343 353 358 4 12 13 6 1 350 339 327 306 279 248 239 233
340 340 341 339 335 329 324 312 305 287 270 243 224 218 221 216 207 205 199 184 174 178 176 177 200 230 264 290 315 327 336 344 351 358 356 6 12 8 358 349 342 329 314 284 263 241 232
340 340 340 339 335 326 322 311 300 278 264 232 217 211 209 206 201 202 192 178 177 178 171 176 194 214 242 283 308 326 337 345 355 355 353 360 1 6 0 350 337 332 318 289 261 244 234
341 339 341 339 335 325 319 312 292 270 258 225 214 207 205 198 194 196 185 176 175 178 170 176 189 207 221 259 289 330 346 350 353 351 353 355 355 1 0 351 345 335 329 304 255 239 232
341 340 341 339 336 325 318 307 292 277 247 216 212 203 198 189 192 188 178 175 173 174 168 177 187 200 209 237 270 335 348 350 353 349 353 353 354 3 2 356 353 345 337 314 272 242 231
341 342 341 339 336 324 317 306 298 263 234 211 210 197 195 186 187 180 175 172 171 170 167 176 185 191 203 214 249 318 342 349 354 350 353 353 353 1 6 2 357 354 347 335 287 246 229
341 342 341 341 336 325 315 314 278 220 214 206 208 192 187 185 178 176 176 168 169 167 167 176 184 185 197 197 237 341 346 353 353 351 353 353 351 358 9 7 1 355 353 348 316 255 224
342 342 342 342 339 329 313 302 257 211 197 198 198 187 184 182 176 175 172 166 168 168 170 178 177 180 188 188 209 354 354 356 356 353 352 352 353 354 4 9 8 359 352 347 340 285 238
344 343 343 342 342 333 316 291 235 189 177 183 185 181 181 179 176 176 164 164 167 167 171 177 170 178 181 160 162 346 357 358 1 357 354 354 354 353 356 7 8 4 0 352 345 317 262
343 344 344 342 342 336 328 88 137 137 152 175 176 177 181 174 175 167 161 165 167 168 173 172 169 174 183 153 155 355 3 5 6 2 359 357 355 352 352 358 10 4 6 3 348 338 305
342 343 344 340 343 337 352 121 126 135 155 168 174 177 177 175 171 161 163 168 168 167 172 168 169 175 182 159 155 355 4 7 9 5 2 1 358 352 353 352 1 11 13 8 4 347 329
342 344 344 340 346 6 55 122 138 143 162 173 177 177 174 176 163 162 166 167 167 170 169 168 170 179 181 170 200 338 359 9 10 8 5 4 0 355 356 351 355 10 20 19 13 9 349
342 343 345 339 341 39 106 143 153 155 168 177 178 178 176 167 163 164 163 168 167 173 169 169 174 182 179 172 216 318 354 5 9 8 6 2 0 357 360 353 354 360 13 17 19 18 11
340 342 346 342 345 112 128 160 163 167 170 175 177 174 173 166 164 165 166 171 172 173 169 171 180 183 176 182 214 299 343 4 12 12 7 4 1 2 4 359 357 356 3 11 12 21 11
339 341 345 342 337 112 109 162 177 178 174 175 174 174 173 167 167 167 170 176 177 175 173 175 182 185 181 197 213 280 343 5 12 10 8 6 1 1 2 2 3 1 1 3 14 19 17
337 338 340 343 333 151 154 173 182 186 182 176 174 177 171 169 167 168 172 178 181 185 176 179 184 189 191 204 223 275 349 3 9 9 5 8 1 359 359 2 4 1 359 0 5 10 18
332 334 332 342 316 217 179 186 184 195 187 178 179 177 173 168 172 171 175 180 186 191 180 185 188 198 203 220 234 274 337 357 1 3 0 4 3 2 0 4 8 6 3 0 359 8 11
329 330 325 337 293 247 203 194 193 196 190 187 182 178 174 168 175 178 176 186 190 189 189 192 197 203 209 224 236 273 318 343 357 358 358 359 359 2 2 3 6 10 8 0 0 4 7
Height
10664 10654 10644 10633 10623 10613 10602 10592 10585 10579 10571 10568 10569 10567 10570 10572 10575 10582 10587 10595 10596 10595 10598 10605 10605 10599 10595 10584 10578 10575 10573 10558 10544 10530 10517 10504 10494 10485 10480 10480 10487 10492 10500 10510 10518 10524 10543
10651 10642 10630 10619 10609 10598 10587 10578 10570 10564 10556 10554 10552 10552 10554 10559 10563 10568 10577 10582 10584 10587 10589 10595 10595 10593 10589 10578 10571 10569 10566 10552 10539 10527 10512 10499 10488 10481 10477 10479 10485 10492 10499 10505 10515 10525 10540
10641 10628 10616 10604 10593 10582 10570 10560 10554 10549 10541 10535 10535 10535 10539 10545 10551 10556 10565 10571 10575 10578 10581 10586 10587 10588 10583 10575 10564 10564 10563 10550 10539 10527 10510 10496 10485 10480 10478 10480 10486 10491 10497 10502 10513 10525 10534
10628 10616 10603 10590 10576 10565 10554 10544 10534 10529 10526 10520 10517 10518 10523 10531 10540 10546 10552 10558 10565 10570 10574 10578 10582 10583 10578 10571 10561 10557 10557 10543 10533 10523 10504 10497 10488 10483 10482 10483 10487 10493 10499 10505 10513 10522 10531
10614 10600 10586 10573 10558 10545 10534 10523 10517 10512 10508 10504 10504 10504 10509 10516 10525 10535 10541 10547 10556 10562 10566 10571 10575 10578 10576 10568 10559 10551 10548 10541 10529 10515 10506 10496 10489 10487 10487 10487 10491 10495 10502 10507 10512 10519 10524
10599 10584 10570 10556 10542 10527 10514 10504 10495 10490 10490 10487 10487 10488 10494 10501 10512 10524 10531 10536 10547 10554 10558 10565 10569 10571 10572 10566 10557 10549 10544 10537 10527 10514 10504 10498 10495 10493 10493 10493 10493 10500 10502 10507 10512 10516 10522
10585 10568 10554 10539 10523 10508 10498 10485 10474 10470 10468 10469 10467 10473 10481 10489 10501 10512 10519 10527 10538 10547 10552 10559 10563 10565 10566 10563 10555 10548 10541 10539 10533 10520 10512 10506 10500 10497 10494 10494 10496 10499 10505 10505 10510 10518 10521
10569 10553 10536 10520 10505 10487 10473 10463 10451 10448 10446 10450 10450 10454 10468 10476 10489 10500 10509 10518 10528 10539 10546 10553 10558 10560 10561 10560 10552 10547 10543 10537 10531 10523 10517 10513 10508 10501 10497 10495 10496 10498 10500 10505 10509 10513 10517
10553 10536 10517 10499 10483 10467 10451 10437 10430 10427 10424 10431 10433 10438 10453 10461 10476 10488 10498 10510 10520 10532 10540 10548 10553 10555 10556 10555 10551 10547 10543 10540 10532 10526 10518 10511 10509 10506 10498 10497 10496 10495 10498 10501 10505 10507 10510
10536 10516 10497 10479 10461 10447 10435 10419 10409 10407 10406 10412 10417 10423 10440 10450 10464 10479 10491 10501 10514 10525 10534 10543 10548 10551 10551 10549 10546 10543 10541 10540 10534 10527 10522 10514 10506 10505 10501 10498 10496 10494 10494 10495 10496 10501 10505
10513 10495 10475 10458 10441 10426 10413 10401 10392 10391 10388 10396 10405 10409 10427 10439 10452 10468 10480 10492 10507 10518 10528 10538 10543 10547 10548 10547 10544 10541 10539 10537 10533 10527 10521 10516 10511 10507 10503 10498 10496 10490 10487 10488 10492 10494 10498
10500 10485 10465 10444 10425 10408 10393 10384 10376 10376 10374 10381 10392 10399 10415 10429 10444 10460 10472 10484 10499 10512 10523 10532 10539 10543 10544 10544 10542 10540 10539 10535 10531 10526 10522 10519 10513 10504 10497 10494 10487 10483 10479 10477 10480 10484 10492
10493 10473 10451 10427 10407 10390 10375 10366 10362 10362 10362 10370 10380 10391 10405 10422 10439 10455 10466 10478 10491 10506 10517 10527 10534 10538 10540 10541 10540 10539 10538 10534 10528 10522 10516 10515 10509 10504 10498 10488 10481 10477 10473 10469 10469 10475 10481
10482 10459 10437 10412 10389 10372 10359 10351 10349 10349 10352 10360 10370 10383 10397 10415 10434 10449 10461 10473 10487 10501 10511 10521 10530 10535 10537 10538 10538 10538 10537 10532 10527 10521 10514 10508 10503 10501 10495 10486 10476 10469 10464 10462 10459 10462 10466
10465 10444 10420 10397 10374 10355 10345 10339 10335 10338 10343 10350 10363 10376 10393 10412 10431 10445 10456 10467 10482 10497 10507 10517 10525 10530 10534 10535 10537 10537 10536 10532 10526 10521 10514 10508 10502 10496 10488 10479 10470 10461 10454 10450 10451 10451 10450
10448 10428 10406 10383 10363 10342 10334 10328 10326 10329 10335 10344 10357 10371 10391 10413 10427 10441 10451 10465 10478 10492 10503 10514 10521 10526 10530 10532 10535 10535 10534 10530 10526 10520 10513 10504 10496 10493 10485 10474 10463 10453 10448 10442 10439 10440 10441
10432 10410 10391 10371 10354 10334 10325 10319 10320 10323 10330 10340 10354 10373 10392 10408 10424 10437 10448 10462 10476 10489 10499 10509 10516 10522 10525 10528 10531 10532 10531 10528 10524 10517 10512 10503 10495 10489 10480 10467 10457 10447 10438 10433 10429 10429 10430
10424 10399 10376 10357 10340 10329 10322 10315 10316 10319 10327 10338 10354 10373 10389 10407 10421 10431 10445 10461 10475 10486 10497 10506 10512 10518 10521 10525 10527 10528 10527 10524 10520 10513 10507 10499 10490 10484 10478 10466 10450 10440 10431 10424 10421 10420 10421
10417 10392 10370 10350 10335 10324 10320 10313 10314 10319 10327 10338 10356 10374 10390 10406 10417 10430 10445 10460 10474 10483 10493 10502 10508 10514 10518 10521 10524 10525 10524 10521 10517 10509 10502 10495 10487 10477 10469 10461 10448 10436 10425 10419 10414 10412 10411
10406 10388 10367 10349 10334 10326 10319 10313 10315 10322 10329 10341 10359 10377 10393 10406 10418 10431 10447 10461 10473 10482 10491 10499 10505 10511 10515 10518 10520 10522 10521 10519 10514 10508 10500 10492 10482 10472 10465 10461 10450 10437 10425 10415 10410 10406 10405
10405 10384 10368 10349 10336 10328 10323 10319 10320 10325 10337 10350 10364 10378 10391 10407 10420 10436 10449 10461 10471 10481 10490 10496 10502 10508 10512 10516 10518 10520 10519 10516 10512 10507 10499 10491 10480 10472 10462 10456 10452 10439 10424 10413 10405 10400 10399
10403 10382 10366 10351 10338 10330 10325 10323 10325 10333 10345 10359 10369 10379 10396 10410 10425 10439 10450 10461 10471 10479 10488 10494 10500 10505 10510 10513 10515 10517 10516 10514 10510 10504 10498 10489 10480 10471 10464 10452 10447 10441 10422 10411 10401 10395 10390
10402 10382 10366 10351 10341 10332 10327 10329 10330 10339 10357 10368 10377 10387 10401 10413 10428 10439 10450 10462 10471 10479 10486 10493 10499 10504 10507 10510 10513 10514 10514 10511 10507 10503 10497 10489 10480 10471 10461 10448 10442 10434 10424 10411 10401 10391 10385
10401 10383 10370 10354 10344 10336 10332 10335 10339 10344 10360 10373 10382 10394 10407 10421 10432 10442 10453 10464 10471 10480 10486 10492 10497 10502 10505 10508 10511 10512 10511 10509 10505 10501 10496 10489 10482 10471 10460 10447 10433 10427 10419 10413 10404 10389 10381
10405 10388 10375 10363 10354 10343 10343 10348 10354 10358 10366 10379 10390 10403 10414 10426 10435 10444 10455 10464 10471 10478 10484 10490 10495 10499 10503 10506 10509 10510 10509 10507 10503 10499 10494 10488 10481 10472 10459 10448 10438 10423 10414 10408 10398 10387 10379
10408 10393 10383 10371 10367 10355 10355 10360 10365 10369 10373 10380 10395 10409 10420 10429 10437 10447 10457 10465 10472 10477 10483 10488 10493 10497 10501 10504 10506 10507 10507 10505 10501 10497 10491 10485 10477 10469 10459 10446 10433 10419 10411 10404 10397 10388 10377
10413 10400 10390 10381 10376 10367 10366 10372 10376 10381 10383 10392 10403 10413 10425 10434 10442 10449 10458 10466 10472 10477 10482 10487 10492 10495 10499 10502 10504 10505 10505 10502 10500 10495 10490 10483 10476 10467 10456 10445 10434 10419 10409 10401 10390 10383 10370
10413 10403 10392 10388 10385 10379 10374 10379 10384 10391 10394 10400 10408 10418 10426 10435 10444 10450 10459 10467 10471 10477 10482 10486 10490 10493 10496 10499 10501 10502 10502 10500 10497 10493 10487 10480 10473 10463 10454 10443 10430 10419 10406 10395 10387 10373 10365
10406 10403 10396 10391 10391 10386 10384 10386 10389 10396 10399 10405 10413 10421 10427 10435 10445 10452 10459 10465 10471 10477 10481 10484 10488 10491 10494 10497 10499 10499 10499 10497 10494 10490 10485 10479 10470 10462 10452 10441 10431 10417 10402 10390 10381 10371 10363